Location: Albany
(35.0170°S, 117.8920°E)
Time: 23:22:05
(UTC+08:00)

Vanguard 2 - Visible Passes

Search period start: 25 January 2021 00:00
Search period end: 04 February 2021 00:00
Orbit: 553 x 2937 km, 32.9° (Epoch: 25 January)

Date Brightness Start Highest point End Pass type
(mag) Time Alt. Az. Time Alt. Az. Time Alt. Az.
25 Jan 10.6 01:30:15 37° NNE 01:32:20 38° NE 01:47:46 10° E visible
25 Jan 10.4 03:31:37 24° NW 03:43:56 69° NNE 04:00:45 10° E visible
25 Jan 11.4 23:45:14 13° ENE 23:45:14 13° ENE 23:48:34 10° E visible
26 Jan 10.3 01:46:36 43° N 01:49:49 46° NE 02:06:17 10° E visible
26 Jan 10.4 03:47:57 19° WNW 04:01:57 75° NNE 04:18:48 10° E visible
27 Jan 11.2 00:01:33 20° ENE 00:01:33 20° ENE 00:09:00 10° E visible
27 Jan 10.2 02:02:54 46° N 02:07:27 55° NNE 02:24:36 10° E visible
27 Jan 10.4 04:04:16 14° WNW 04:20:02 80° N 04:36:50 10° E visible
28 Jan 10.8 00:17:50 28° ENE 00:17:50 28° ENE 00:28:21 10° E visible
28 Jan 10.2 02:19:11 45° NNW 02:25:12 63° NNE 02:42:49 10° E visible
28 Jan 10.4 04:20:46 10° W 04:38:12 83° N 04:54:53 10° E visible
29 Jan 10.5 00:34:07 37° NE 00:34:07 37° NE 00:47:09 10° E visible
29 Jan 10.2 02:35:28 40° NW 02:43:04 71° NNE 03:00:57 10° E visible
29 Jan 10.4 04:38:48 10° W 04:56:23 84° N 05:12:54 10° E visible
30 Jan 10.2 00:50:22 47° NE 00:50:22 47° NE 01:05:39 10° E visible
30 Jan 10.2 02:51:44 33° WNW 03:01:05 77° NNE 03:19:04 10° E visible
30 Jan 10.5 04:56:53 10° W 05:14:33 82° N 05:30:52 10° ENE visible
30 Jan 11.3 23:05:17 14° E 23:05:17 14° E 23:08:01 10° E visible
31 Jan 10.0 01:06:38 56° NNE 01:06:57 56° NNE 01:23:58 10° E visible
31 Jan 10.2 03:08:00 26° WNW 03:19:10 81° N 03:37:11 10° E visible
31 Jan 11.0 23:21:33 21° E 23:21:33 21° E 23:27:17 10° E visible
01 Feb 9.8 01:22:55 62° N 01:24:41 65° NNE 01:42:13 10° E visible
01 Feb 10.3 03:24:16 19° W 03:37:20 83° N 03:55:17 10° E visible
01 Feb 10.7 23:37:50 29° ENE 23:37:50 29° ENE 23:46:02 10° E visible
02 Feb 9.8 01:39:12 59° NW 01:42:33 72° NNE 02:00:24 10° E visible
02 Feb 10.3 03:40:34 13° W 03:55:30 83° N 04:13:22 10° E visible
02 Feb 10.4 23:54:09 38° ENE 23:54:09 38° ENE 00:04:31 10° E visible
03 Feb 9.9 01:55:31 51° WNW 02:00:31 78° NNE 02:18:35 10° E visible
03 Feb 10.3 03:57:31 10° W 04:13:40 81° N 04:31:24 10° ENE visible
